FW5188 Weather Reports


Display with metric or nautical units.
time (UTC)temp
F
wind
direction
speed
MPH
gust
MPH
rain 1hr
in
rain 24hr
in
rain mn
in
humidity
%
barometer
mb
20260504081501 45 179 0.0 0.0 0.00 0.00 0.00 89 1016.7
20260504044543 47 218 0.0 1.0 0.00 0.00 0.00 87 1017.6
20260504043055 47 219 0.0 1.0 0.00 0.00 0.00 87 1017.6
20260504041538 47 252 0.0 0.0 0.00 0.00 0.00 86 1017.7
20260504040041 48 252 0.0 0.0 0.00 0.00 0.00 85 1017.9
20260504034638 49 253 1.0 3.0 0.00 0.00 0.00 83 1018.1
20260504033036 50 267 0.0 0.0 0.00 0.00 0.00 82 1018.3
20260504031547 50 267 0.0 0.0 0.00 0.00 0.00 81 1018.2
20260504030041 51 267 0.0 0.0 0.00 0.00 0.00 79 1018.1
20260504024538 52 267 0.0 0.0 0.00 0.00 0.00 77 1018.1
20260504023034 52 267 0.0 0.0 0.00 0.00 0.00 76 1018.2
20260504021544 53 267 0.0 0.0 0.00 0.00 0.00 73 1017.9
20260504020038 54 267 0.0 0.0 0.00 0.00 0.00 70 1017.7
20260504014532 55 267 0.0 1.0 0.00 0.00 0.00 66 1017.7
20260504013036 56 355 0.0 0.0 0.00 0.00 0.00 64 1017.7
20260504011533 58 355 0.0 0.0 0.00 0.00 0.00 60 1017.6
20260504010032 59 355 0.0 0.0 0.00 0.00 0.00 56 1017.6
20260504004540 60 355 0.0 2.0 0.00 0.00 0.00 51 1017.5
20260504003130 61 344 0.0 3.0 0.00 0.00 0.00 49 1017.4
20260504001535 62 331 1.0 3.0 0.00 0.00 0.00 47 1017.4
20260504000029 63 344 2.0 9.0 0.00 0.00 0.00 46 1017.4
20260503234529 63 327 4.0 9.0 0.00 0.00 0.00 45 1017.4
20260503233028 63 360 3.0 8.0 0.00 0.00 0.00 43 1017.3
20260503231527 64 336 3.0 9.0 0.00 0.00 0.00 44 1017.3
20260503230026 64 292 6.0 10.0 0.00 0.00 0.00 45 1017.3
20260503224525 64 355 6.0 11.0 0.00 0.00 0.00 45 1017.3
20260503223024 64 272 7.0 12.0 0.00 0.00 0.00 47 1017.4
20260503221523 64 360 5.0 11.0 0.00 0.00 0.00 46 1017.6
20260503220030 64 355 5.0 11.0 0.00 0.00 0.00 48 1017.6
20260503214532 65 134 2.0 10.0 0.00 0.00 0.00 49 1017.7
20260503213029 64 37 7.0 12.0 0.00 0.00 0.00 46 1017.9
20260503211518 64 308 6.0 9.0 0.00 0.00 0.00 49 1018.0
20260503210019 64 326 8.0 14.0 0.00 0.00 0.00 52 1018.3
20260503204525 64 312 4.0 9.0 0.00 0.00 0.00 54 1018.5
20260503203016 64 304 6.0 11.0 0.00 0.00 0.00 52 1018.6
20260503201514 63 295 3.0 11.0 0.00 0.00 0.00 55 1018.7
20260503200014 63 42 8.0 12.0 0.00 0.00 0.00 49 1019.0
20260503194511 63 5 7.0 11.0 0.00 0.00 0.00 50 1019.3
20260503193011 62 327 8.0 14.0 0.00 0.00 0.00 48 1019.6
20260503191509 62 301 5.0 11.0 0.00 0.00 0.00 50 1019.7
20260503190014 61 311 4.0 12.0 0.00 0.00 0.00 59 1019.9
20260503184512 62 15 7.0 11.0 0.00 0.00 0.00 58 1020.0
20260503183005 61 317 6.0 9.0 0.00 0.00 0.00 62 1020.4
20260503181512 60 186 2.0 11.0 0.00 0.00 0.00 55 1020.5
20260503180010 60 298 4.0 11.0 0.00 0.00 0.00 55 1020.5
20260503174501 60 324 3.0 10.0 0.00 0.00 0.00 53 1020.7
20260503173111 60 78 4.0 9.0 0.00 0.00 0.00 54 1020.9
20260503171557 59 103 0.0 8.0 0.00 0.00 0.00 60 1021.0
20260503170107 59 342 0.0 5.0 0.00 0.00 0.00 62 1021.3